This is the latest recevied weather packets stored in our database for station/object KB5DPX. If no packets are shown the sender has not sent any weather packets the latest 1 day(s).
| Time | Temp. | Humidity | Pressure | Rain* | Wind** | Luminosity | Snow |
|---|---|---|---|---|---|---|---|
| 1836274559 | 14.44° C | 87% | 1023.5 hPa | 0 mm | 0 m/s | 0 W/m² | - |
| 1836274410 | 14.44° C | 85% | 1023.3 hPa | 0 mm | 0 m/s | 0 W/m² | - |
| 1836274272 | 14.44° C | 87% | 1023.5 hPa | 0 mm | 0 m/s | 0 W/m² | - |
| 1836274123 | 14.44° C | 86% | 1023.3 hPa | 0 mm | 0 m/s | 0 W/m² | - |
| 1836273957 | 14.44° C | 87% | 1023.3 hPa | 0 mm | 0 m/s | 0 W/m² | - |
| 1778054247 | 2.22° C | 77% | 1011.4 hPa | 0 mm | 2.68 m/s, 300° | 0 W/m² | - |
| 1778053956 | 2.22° C | 76% | 1011.4 hPa | 0 mm | 2.24 m/s, 296° | 0 W/m² | - |
| 1778053640 | 2.22° C | 76% | 1011.4 hPa | 0 mm | 3.13 m/s, 296° | 0 W/m² | - |
| 1778053352 | 2.22° C | 75% | 1011.4 hPa | 0 mm | 2.68 m/s, 302° | 0 W/m² | - |
| 1778053058 | 2.22° C | 75% | 1011.4 hPa | 0 mm | 2.24 m/s, 290° | 0 W/m² | - |
| 1778052741 | 2.22° C | 74% | 1011.4 hPa | 0 mm | 2.24 m/s, 298° | 0 W/m² | - |
| 1778052446 | 2.22° C | 73% | 1011.4 hPa | 0 mm | 1.34 m/s, 294° | 0 W/m² | - |
| 1778052159 | 2.22° C | 72% | 1011.5 hPa | 0 mm | 1.79 m/s, 298° | 0 W/m² | - |
| 1778051845 | 2.22° C | 71% | 1011.6 hPa | 0 mm | 1.34 m/s, 326° | 0 W/m² | - |
| 1778051554 | 2.22° C | 71% | 1011.6 hPa | 0 mm | 0.89 m/s, 331° | 0 W/m² | - |
| 1778051259 | 2.22° C | 71% | 1011.6 hPa | 0 mm | 1.79 m/s, 340° | 0 W/m² | - |
| 1778050963 | 2.22° C | 71% | 1011.6 hPa | 0 mm | 1.34 m/s, 344° | 0 W/m² | - |
| 1778050658 | 2.78° C | 71% | 1011.6 hPa | 0 mm | 1.34 m/s, 344° | 0 W/m² | - |
| 1778050362 | 2.78° C | 71% | 1011.6 hPa | 0 mm | 0.45 m/s, 344° | 0 W/m² | - |
| 1778050047 | 2.78° C | 71% | 1011.4 hPa | 0 mm | 0.89 m/s, 344° | 0 W/m² | - |
| 1778049760 | 2.78° C | 71% | 1011.6 hPa | 0 mm | 1.34 m/s, 344° | 0 W/m² | - |
| 1778049458 | 2.78° C | 71% | 1011.6 hPa | 0 mm | 1.79 m/s, 351° | 0 W/m² | - |
| 1778049162 | 2.78° C | 70% | 1011.6 hPa | 0 mm | 2.24 m/s, 349° | 0 W/m² | - |
| 1778048840 | 2.78° C | 71% | 1011.6 hPa | 0 mm | 2.24 m/s, 355° | 0 W/m² | - |
| 1778048552 | 2.78° C | 71% | 1011.7 hPa | 0 mm | 1.79 m/s, 355° | 0 W/m² | - |
* Rain latest hour (hover to see other rain measurements)
** Current wind speed in m/s (hover to see current wind gust speed)